Location: Peterborough
(44.3091°N, 78.3197°W)
Time: 16:44:27
(UTC-04:00)

Transit 2A - Pass Details

Date: 23 March 2023
Orbit: 591 x 964 km, 66.7° (Epoch: 04 June)

Event Time Altitude Azimuth Distance (km) Brightness Sun altitude
Rises 13:54:24 0° 332° (NNW) 3,608 9.2 46.1°
Reaches altitude 10° 13:57:21 10° 344° (NNW) 2,688 8.6 46.0°
Maximum altitude 14:02:43 28° 42° (NE) 1,730 7.7 45.8°
Drops below altitude 10° 14:08:05 10° 99° (E) 2,684 8.9 45.5°
Sets 14:11:00 0° 111° (ESE) 3,601 9.5 45.4°
